Flag for U.S.A. Weather past 2 weeks in Shiprock, New Mexico, U.S.A.

Now
66 °F

Sunny.


Feels Like: 66 °F
Forecast: 31 / 74 °F
Wind: 17 mph from West

Location: Four Corners Regional Airport

Current Time: Mar 27, 2015 at 1:49:07 PM

Latest Report: Mar 27, 2015 at 12:53 PM


Visibility: 10 mi

Pressure: 30.16 "Hg

Humidity: 17%

Dew point: 20 °F

Location of ShiprockLocation

Historic Weather in Shiprock — Graph

°F

Shiprock temperature yesterday

Maximum temperature yesterday: 64 °F (at 3:53 PM)
Minimum temperature yesterday: 25 °F (at 4:53 AM)
Average temperature yesterday: 46 °F

Past Weeks' High & Low Weather Summary

 TemperatureHumidityPressure
High72 °F (Mar 16, 3:53 PM)88% (Mar 21, 6:53 AM)30.38 "Hg (Mar 21, 6:53 AM)
Low25 °F (Mar 26, 4:53 AM)8% (Mar 23, 5:53 PM)29.83 "Hg (Mar 19, 2:53 PM)
Average51 °F40%30.09 "Hg
* Reported Mar 12 12:53 PM — Mar 27 12:53 PM, Shiprock, Weather by CustomWeather, © 2015

Note: Actual official high and low records may vary slightly from our data, if they occured in-between our weather recording intervals... More about our weather records

Advertising

Shiprock weather history for previous 24 hours

 ConditionsComfort  
Time TempWeatherWind HumidityBarometerVisibility
12:53 PM
Fri, Mar 27
66 °FSunny.17 mph17%30.16 "Hg10 mi
11:53 AM62 °FSunny.10 mph20%30.21 "Hg10 mi
10:53 AM55 °FSunny.5 mph24%30.24 "Hg10 mi
9:53 AM47 °FSunny.8 mph34%30.27 "Hg10 mi
8:53 AM41 °FSunny.10 mph43%30.28 "Hg10 mi
7:53 AM36 °FClear.8 mph52%30.29 "Hg10 mi
6:53 AM34 °FClear.8 mph54%30.26 "Hg10 mi
5:53 AM35 °FClear.8 mph48%30.24 "Hg10 mi
4:53 AM33 °FClear.5 mph49%30.23 "Hg10 mi
3:53 AM40 °FClear.No wind40%30.20 "Hg10 mi
2:53 AM44 °FClear.7 mph34%30.19 "Hg10 mi
1:53 AM47 °FClear.6 mph29%30.20 "Hg10 mi
12:53 AM51 °FClear.8 mph24%30.19 "Hg10 mi
11:53 PM
Thu, Mar 26
49 °FClear.9 mph26%30.20 "Hg10 mi
10:53 PM50 °FClear.14 mph25%30.20 "Hg10 mi
9:53 PM52 °FClear.10 mph21%30.21 "Hg10 mi
8:53 PM54 °FClear.12 mph19%30.21 "Hg10 mi
7:53 PM57 °FSunny.16 mph16%30.21 "Hg10 mi
6:53 PM60 °FSunny.23 mph14%30.18 "Hg10 mi
5:53 PM62 °FSunny.24 mph14%30.17 "Hg10 mi
4:53 PM64 °FSunny.22 mph14%30.17 "Hg10 mi
3:53 PM64 °FSunny.16 mph13%30.17 "Hg10 mi
2:53 PM62 °FSunny.N/A14%30.21 "Hg10 mi
1:53 PM59 °FSunny.5 mph14%30.23 "Hg10 mi
Weather by CustomWeather, © 2015

See weather overviewHow to use our weather pages